New Bern, NC

3:53 AM EDT on April 28, 2017 (GMT -0400)
Craven County Regional

Weather History for KEWN - June, 2014

Change the Weather History Date:

Sunday, June 8, 2014

  Actual Average Record
Temperature  
Mean Temperature 73 °F 76 °F  
Max Temperature 87 °F 86 °F 99 °F (2008)
Min Temperature 59 °F 66 °F 49 °F (1977)
Degree Days  
Heating Degree Days 0 0  
Month to date heating degree days 0 0  
Since 1 June heating degree days 0 0  
Since 1 July heating degree days 2637 2701  
Cooling Degree Days 8 11  
Month to date cooling degree days 77 78  
Year to date cooling degree days 438 321  
Since 1 June cooling degree days 77 78  
Growing Degree Days 22 (Base 50)    
Moisture  
Dew Point 59 °F    
Average Humidity 64    
Maximum Humidity 93    
Minimum Humidity 35    
Precipitation  
Precipitation 0.00 in 0.14 in 0.71 in (1963)
Month to date precipitation 0.23 1.18  
Year to date precipitation 18.11 20.57  
Snow  
Snow 0.00 in - - ()
Month to date snowfall 0.0  
Since 1 July snowfall 14.0  
Snow Depth 0.00 in    
Sea Level Pressure  
Sea Level Pressure 29.99 in    
Wind  
Wind Speed 4 mph (SSE)    
Max Wind Speed 13 mph    
Max Gust Speed 17 mph    
Visibility 8 miles    
Events Fog    
T = Trace of Precipitation, MM = Missing Value Source: NWS Daily Summary

Daily Weather History Graph

Daily Weather History Graph

Search for Another Location

Airport or City:

Trip Planner

Search our weather history database for the weather conditions in past years. The results will help you decide how hot, cold, wet, or windy it might be!

Date:

Astronomy

Jun. 08, 2014 Rise Set
Actual Time 5:53 AM EDT 8:20 PM EDT
Civil Twilight 5:24 AM EDT 8:50 PM EDT
Nautical Twilight 4:47 AM EDT 9:27 PM EDT
Astronomical Twilight 4:07 AM EDT 10:07 PM EDT
Moon 3:46 PM EDT (6/8) 2:35 AM EDT (6/8)
Length of Visible Light 15h 26m
Length of Day
14h 27m
Waxing Gibbous, 77% of the Moon is Illuminated
Jun 8
Waxing Gibbous
Jun 13
Full
Jun 19
Last Quarter
Jun 27
New
Jul 5
First Quarter

Hourly Weather History & Observations

Time (EDT) Temp. Heat Index Dew Point Humidity Pressure Visibility Wind Dir Wind Speed Gust Speed Precip Events Conditions
12:54 AM 66.0 °F - 60.1 °F 81% 30.00 in 10.0 mi Calm Calm - N/A   Clear
1:54 AM 64.0 °F - 59.0 °F 84% 30.01 in 10.0 mi Calm Calm - N/A   Clear
2:54 AM 63.0 °F - 59.0 °F 87% 29.99 in 10.0 mi Calm Calm - N/A   Clear
3:54 AM 62.1 °F - 57.9 °F 86% 29.99 in 9.0 mi Calm Calm - N/A   Clear
4:35 AM 60.8 °F - 57.2 °F 88% 29.99 in 1.5 mi Calm Calm - N/A   Clear
4:45 AM 62.6 °F - 60.8 °F 94% 29.99 in 0.8 mi Calm Calm - N/A   Clear
4:51 AM 62.6 °F - 59.0 °F 88% 29.99 in 2.5 mi SSW 3.5 mph - N/A   Clear
4:52 AM 62.6 °F - 59.0 °F 88% 29.99 in 3.0 mi Calm Calm - N/A   Clear
4:54 AM 62.1 °F - 59.0 °F 90% 29.99 in 5.0 mi Calm Calm - N/A   Clear
5:29 AM 60.8 °F - 57.2 °F 88% 30.00 in 1.8 mi Calm Calm - N/A   Clear
5:33 AM 62.6 °F - 57.2 °F 82% 30.00 in 3.0 mi Calm Calm - N/A   Clear
5:42 AM 62.6 °F - 60.8 °F 94% 30.00 in 1.8 mi Calm Calm - N/A   Clear
5:49 AM 60.8 °F - 57.2 °F 88% 30.01 in 10.0 mi Calm Calm - N/A Fog Shallow Fog
5:54 AM 59.0 °F - 57.0 °F 93% 30.01 in 10.0 mi Calm Calm - N/A Fog Shallow Fog
6:01 AM 60.8 °F - 57.2 °F 88% 30.01 in 0.2 mi Calm Calm - N/A Fog Shallow Fog
6:10 AM 60.8 °F - 59.0 °F 94% 30.01 in 10.0 mi Calm Calm - N/A Fog Shallow Fog
6:54 AM 64.9 °F - 60.1 °F 84% 30.02 in 10.0 mi Calm Calm - N/A Fog Shallow Fog
7:54 AM 69.1 °F - 62.1 °F 78% 30.03 in 10.0 mi Calm Calm - N/A Fog Shallow Fog
8:54 AM 75.9 °F - 62.1 °F 62% 30.04 in 10.0 mi SSE 3.5 mph - N/A   Clear
9:54 AM 79.0 °F - 57.0 °F 47% 30.03 in 10.0 mi ESE 8.1 mph - N/A   Clear
10:54 AM 80.1 °F 80.1 °F 55.0 °F 42% 30.03 in 10.0 mi SE 10.4 mph - N/A   Clear
11:54 AM 82.0 °F 81.6 °F 55.9 °F 41% 30.02 in 10.0 mi ESE 8.1 mph - N/A   Clear
12:54 PM 84.0 °F 83.5 °F 57.9 °F 41% 30.00 in 10.0 mi ESE 5.8 mph - N/A   Clear
1:54 PM 84.0 °F 83.0 °F 55.9 °F 38% 29.99 in 10.0 mi Variable 5.8 mph - N/A   Clear
2:54 PM 86.0 °F 84.5 °F 55.0 °F 35% 29.96 in 10.0 mi SSE 8.1 mph - N/A   Clear
3:54 PM 84.9 °F 84.4 °F 59.0 °F 41% 29.96 in 10.0 mi SE 9.2 mph - N/A   Clear
4:54 PM 84.0 °F 83.0 °F 55.9 °F 38% 29.95 in 10.0 mi SE 10.4 mph 16.1 mph N/A   Clear
5:54 PM 80.1 °F 80.6 °F 57.9 °F 47% 29.96 in 10.0 mi South 9.2 mph - N/A   Clear
6:54 PM 78.1 °F - 57.0 °F 48% 29.95 in 10.0 mi South 6.9 mph - N/A   Clear
7:54 PM 75.0 °F - 55.9 °F 51% 29.94 in 10.0 mi SSE 3.5 mph - N/A   Clear
8:54 PM 73.0 °F - 60.1 °F 64% 29.94 in 10.0 mi SSE 4.6 mph - N/A   Clear
9:54 PM 72.0 °F - 63.0 °F 73% 29.96 in 10.0 mi Calm Calm - N/A   Clear
10:54 PM 70.0 °F - 64.0 °F 81% 29.97 in 10.0 mi SSE 4.6 mph - N/A   Clear
11:54 PM 70.0 °F - 64.0 °F 81% 29.96 in 10.0 mi Calm Calm - N/A   Clear